Погода в Сабур-Мачкасах

Россия / Республика Мордовия     54°28′34″N   45°52′46″E
темп.,
°C
ветер,
м/с
пор.,
м/с
влажн.,
%
обл.,
%
осадки,
мм/ч
давл.,
гПа
погр.,
м
17 мая, пн
пн1700:00+17св118494 0.0 101611
03:00+16в228689 0.0 101611
06:00+18в12785 0.0 101773
09:00+23ююв44586 0.0 1017407
12:00+27юз46439 0.0 1017828
15:00+29юз353721 0.0 10161722
18:00+26юз125136 0.0 101615
21:00+21в5105986 0.1 1018205
18 мая, вт
вт1800:00+19вюв22565 0.0 101719
03:00+17юв35616 0.0 101767
06:00+18вюв366552 0.0 1017128
09:00+24юв57495 0.0 1017359
12:00+27вюв57365 0.0 10161129
15:00+28вюв57405 0.0 10161476
18:00+24вюв410555 0.0 1016236
21:00+19вюв412575 0.0 1016181
19 мая, ср
ср1900:00+17вюв310705 0.0 1016151
03:00+17вюв411700 0.0 1015161
06:00+18вюв512654 0.0 1015256
09:00+23вюв79615 0.0 1015454
12:00+26вюв79491 0.0 10151070
15:00+27вюв795214 0.0 10142021
18:00+24в713632 0.0 1013567
21:00+18вюв413601 0.0 1013229
20 мая, чт
чт2000:00+17вюв4117210 0.1 1013210
03:00+16вюв6167612 0.1 1013428
06:00+17вюв715720 0.0 1013504
09:00+22юв811580 0.0 1012839
12:00+24ююв7115316 0.0 10131791
15:00+22ююз796391 0.4 1013989
18:00+19юз59749 0.0 1014628
21:00+14ююв228847 0.0 101517
21 мая, пт
пт2100:00+14юз2287100 0.0 101522
03:00+13юз2289100 0.0 101641
06:00+14зюз468498 0.0 1017282
09:00+18з45662 0.0 1017923
12:00+21з555675 0.1 10181781
15:00+21зсз454885 0.1 10191548
18:00+19зсз35616 0.0 1020345
21:00+15зюз227046 0.0 102011